Showing default

COSMOS 2531, 43752

Orbit data source: Space-Track

COSMOS 2531, 43752 is a payload satellite owned by VVKO VKS (CIS) in LEO that was launched on Fri, 30 Nov 2018 UTC via an ROKOT launch vehicle from the Plesetsk Missile And Space Complex (PKMTR). Payload-class satellites include a variety of spacecraft equipped with specific instruments for various scientific and technological missions. These include communications satellites like Starlink; space stations such as the ISS; scientific satellites like the Hubble; Earth observation satellites from companies like Planet Labs, Umbra, and HawkEye 360; GPS; miniature CubeSats for education and research; and military/defense satellites.

Loading next visibility...
Identifier
43752, 2018-097B
Orbit
LEO
Country
Flag of CISCIS
Related business
Manufacturer
Resehetnev ISS
Mission
Operational Defense Communications
Bus & Motor
STRELA-3M, Unknown motor
Mass
280 kg wet, 280 kg dry
Launch date (UTC)
2018-11-30 (7 years ago)
Launch vehicle
ROKOT
Launch site
Plesetsk Missile And Space Complex (PKMTR)
Object type
Payload
Rocket body
Debris
Shape & HBR
Cyl + 1 Ant, 3.5 m
Radar Cross Section
1.583 m², Large (>1 m²)

Expand to show TLE details & history
Last TLE update: 8 hours ago

TLE from 8 hours ago
0 COSMOS 2531
1 43752U 18097B   25308.81550889  .00000043  00000-0  23510-3 0  9999
2 43752  82.5228   2.5453 0016874 179.7601 180.3490 12.42866861314430
Epoch: 2025-11-04T19:34Z
TLE epoch observation values (Epoch: 2025-11-04T19:34:19.968Z)
Latitude
0.00003°
Longitude
24.66499°
Altitude
1,510.46 km
Speed
7.104 km/s
True Right ascension
00h 10m 10s
True Declination
0° 00' 00"
Sunlit
Object was in full shadow at epoch
Visualization orbit readout
Latitude
Unknown
Longitude
Unknown
Altitude
Unknown
Speed
Unknown
Apparent Right ascension
Unknown
Apparent Declination
Unknown
Sunlit
N/A
Visualization observer readout
Local Sidereal Time
23:52:59
Azimuth
Unknown
Elevation
Unknown
Doppler factor
Unknown
Orbital elements
Apogee altitude
1,505.104 km
Perigee altitude
1,478.544 km
Semi-major axis
7,869.961 km
Eccentricity
0.00169
Inclination
82.5228°
RAAN
2.5453°
Arg. of periapsis
179.7601°
True anomaly
180.34782°
Mean anomaly
180.349°
Eccentric anomaly
180.34841°
Mean motion
3.10874 °/min
Orbital period
115.8 mins
BSTAR
0.0002351
Loading maneuver chart data...
Computing Atmospheric mass density...
Loading historical data...
Loading historical data...
Loading historical data...
Loading historical data...
Loading historical data...
Loading historical data...
Loading historical data...
Other satellites on launch #97 in the year 2018 (2018-11-30 UTC)

Documentation

Showing up to 5 results
|